This is the latest recevied weather packets stored in our database for station/object OM0AGP-15. If no packets are shown the sender has not sent any weather packets the latest 10 day(s).
| Time | Temp. | Humidity | Pressure | Rain* | Wind** | Luminosity | Snow |
|---|---|---|---|---|---|---|---|
| 1787616802 | 7.78° C | 100% | 1020.9 hPa | - | - | - | - |
| 1787615902 | 7.78° C | 100% | 1021.1 hPa | - | - | - | - |
| 1787615002 | 8.33° C | 100% | 1021 hPa | - | - | - | - |
| 1787614102 | 8.33° C | 100% | 1021.3 hPa | - | - | - | - |
| 1787613201 | 8.89° C | 100% | 1021.4 hPa | - | - | - | - |
| 1787612301 | 8.89° C | 100% | 1021.5 hPa | - | - | - | - |
| 1787611401 | 9.44° C | 100% | 1021.6 hPa | - | - | - | - |
| 1787608701 | 10° C | 100% | 1021.4 hPa | - | - | - | - |
| 1787607801 | 10.56° C | 98% | 1021.3 hPa | - | - | - | - |
| 1787606901 | 10.56° C | 93% | 1021.3 hPa | - | - | - | - |
| 1787606001 | 11.67° C | 86% | 1021.1 hPa | - | - | - | - |
| 1787605101 | 12.22° C | 80% | 1021.1 hPa | - | - | - | - |
| 1787604201 | 12.78° C | 76% | 1021.2 hPa | - | - | - | - |
| 1787603301 | 12.78° C | 72% | 1021.1 hPa | - | - | - | - |
| 1787602401 | 13.33° C | 71% | 1021.1 hPa | - | - | - | - |
| 1787601501 | 13.33° C | 71% | 1021.1 hPa | - | - | - | - |
| 1787600601 | 13.33° C | 70% | 1021.1 hPa | - | - | - | - |
| 1787599701 | 13.89° C | 73% | 1021.1 hPa | - | - | - | - |
| 1787598800 | 14.44° C | 65% | 1021.1 hPa | - | - | - | - |
| 1787597900 | 14.44° C | 66% | 1021.1 hPa | - | - | - | - |
| 1787597000 | 15° C | 67% | 1021.1 hPa | - | - | - | - |
| 1787596100 | 15.56° C | 62% | 1021 hPa | - | - | - | - |
| 1787595200 | 16.11° C | 60% | 1020.7 hPa | - | - | - | - |
| 1787594300 | 16.11° C | 58% | 1020.5 hPa | - | - | - | - |
| 1787593400 | 16.67° C | 58% | 1020.4 hPa | - | - | - | - |
* Rain since midnight (hover to see other rain measurements)
** Current wind speed in m/s (hover to see current wind gust speed)